FW5336 Weather Reports


Display with metric or nautical units.
time (UTC)temp
F
wind
direction
speed
MPH
gust
MPH
rain 1hr
in
rain 24hr
in
rain mn
in
humidity
%
barometer
mb
20260905214443 79 152 2.0 6.0 0.00 0.14 0.14 58 1016.5
20260905213938 79 153 2.0 3.0 0.00 0.14 0.14 58 1016.5
20260905213434 79 119 5.0 7.0 0.00 0.14 0.14 58 1016.5
20260905212929 78 176 2.0 7.0 0.00 0.14 0.14 59 1016.6
20260905212424 79 203 3.0 5.0 0.00 0.14 0.14 59 1016.5
20260905211923 80 65 2.0 6.0 0.00 0.14 0.14 57 1016.6
20260905211419 80 229 0.0 1.0 0.00 0.14 0.14 58 1016.3
20260905210915 79 303 2.0 3.0 0.00 0.14 0.14 58 1016.4
20260905210414 79 173 1.0 7.0 0.00 0.14 0.14 59 1016.5
20260905205914 79 127 7.0 8.0 0.00 0.14 0.14 58 1016.5
20260905205403 80 178 5.0 6.0 0.00 0.14 0.14 58 1016.3
20260905204902 79 208 3.0 8.0 0.00 0.14 0.14 58 1016.6
20260905204358 80 180 3.0 6.0 0.00 0.14 0.14 59 1016.4
20260905203851 80 98 4.0 7.0 0.00 0.14 0.14 59 1016.4
20260905203347 80 117 5.0 8.0 0.00 0.14 0.14 57 1016.6
20260905202842 81 218 3.0 6.0 0.00 0.14 0.14 57 1016.6
20260905202337 80 253 1.0 8.0 0.00 0.14 0.14 57 1016.7
20260905201833 80 150 1.0 6.0 0.00 0.14 0.14 56 1016.7
20260905201328 79 201 2.0 5.0 0.00 0.14 0.14 58 1017.0
20260905200822 79 162 6.0 7.0 0.00 0.14 0.14 59 1016.9
20260905200319 79 310 1.0 5.0 0.00 0.14 0.14 58 1016.9
20260905195816 79 139 3.0 5.0 0.00 0.14 0.14 60 1016.7
20260905195311 79 45 2.0 7.0 0.00 0.14 0.14 59 1017.2
20260905194807 78 145 3.0 5.0 0.00 0.14 0.14 60 1017.1
20260905194306 78 82 3.0 6.0 0.00 0.14 0.14 61 1017.1
20260905193800 78 134 2.0 8.0 0.00 0.14 0.14 59 1017.1
20260905193256 79 134 2.0 6.0 0.00 0.14 0.14 60 1016.9
20260905192751 78 225 3.0 5.0 0.00 0.14 0.14 60 1017.1
20260905192247 78 213 2.0 9.0 0.00 0.14 0.14 61 1017.1
20260905191747 79 127 2.0 5.0 0.00 0.14 0.14 61 1017.2
20260905191245 79 176 2.0 5.0 0.00 0.14 0.14 62 1017.0
20260905190743 79 210 4.0 7.0 0.00 0.14 0.14 61 1017.3
20260905190242 79 104 2.0 5.0 0.00 0.14 0.14 60 1017.1
20260905185741 79 128 3.0 5.0 0.00 0.14 0.14 61 1017.1
20260905185237 79 306 1.0 3.0 0.00 0.14 0.14 60 1017.2
20260905184731 78 177 3.0 6.0 0.00 0.14 0.14 61 1017.3
20260905184230 78 134 1.0 3.0 0.00 0.14 0.14 61 1017.2
20260905183729 78 200 0.0 5.0 0.00 0.14 0.14 63 1017.5
20260905183225 78 132 3.0 5.0 0.00 0.14 0.14 61 1017.4
20260905182719 79 145 6.0 8.0 0.00 0.14 0.14 59 1017.4
20260905182219 78 164 4.0 8.0 0.00 0.14 0.14 61 1017.2
20260905181714 78 134 3.0 3.0 0.00 0.14 0.14 62 1017.2
20260905181213 79 113 3.0 7.0 0.00 0.14 0.14 58 1017.2
20260905180707 79 243 2.0 6.0 0.00 0.14 0.14 60 1017.3
20260905180203 78 351 3.0 5.0 0.00 0.14 0.14 61 1017.4
20260905175702 78 181 6.0 10.0 0.00 0.14 0.14 59 1017.5
20260905175157 78 99 3.0 3.0 0.00 0.14 0.14 59 1017.3
20260905174653 78 136 3.0 9.0 0.00 0.14 0.14 61 1017.2
20260905174148 79 195 6.0 9.0 0.00 0.14 0.14 60 1017.5
20260905173644 78 130 5.0 7.0 0.00 0.14 0.14 61 1017.4
20260905173140 79 153 4.0 9.0 0.00 0.14 0.14 60 1017.4
20260905172639 78 84 4.0 7.0 0.00 0.14 0.14 60 1017.2
20260905172133 79 235 2.0 7.0 0.00 0.14 0.14 60 1017.3
20260905171630 78 154 4.0 8.0 0.00 0.14 0.14 63 1017.3
20260905171125 78 138 6.0 7.0 0.00 0.14 0.14 62 1017.6
20260905170622 78 6 0.0 3.0 0.00 0.14 0.14 64 1017.5
20260905170117 78 5 1.0 2.0 0.00 0.14 0.14 64 1017.6
20260905165611 78 239 1.0 2.0 0.00 0.14 0.14 64 1017.9
20260905165107 78 196 3.0 5.0 0.00 0.14 0.14 65 1017.7
20260905164602 78 192 2.0 3.0 0.00 0.14 0.14 66 1017.7
20260905164056 78 43 1.0 3.0 0.00 0.14 0.14 66 1017.7
20260905163552 77 310 1.0 2.0 0.00 0.14 0.14 68 1017.5
20260905163048 77 310 3.0 3.0 0.00 0.14 0.14 69 1017.4
20260905162545 77 30 0.0 5.0 0.00 0.14 0.14 68 1017.6
20260905162043 78 136 4.0 6.0 0.00 0.14 0.14 67 1017.5
20260905161543 79 211 1.0 6.0 0.00 0.14 0.14 64 1017.5
20260905161041 78 60 3.0 7.0 0.00 0.14 0.14 66 1017.5
20260905160540 77 282 3.0 5.0 0.00 0.14 0.14 68 1017.4
20260905160035 77 156 4.0 6.0 0.00 0.14 0.14 67 1017.6
20260905155535 78 166 2.0 5.0 0.00 0.14 0.14 66 1017.5
20260905155033 77 169 3.0 7.0 0.00 0.14 0.14 68 1017.4
20260905154528 77 139 3.0 6.0 0.00 0.14 0.14 72 1017.4
20260905154024 76 192 5.0 8.0 0.00 0.14 0.14 72 1017.2
20260905153519 76 170 2.0 6.0 0.00 0.14 0.14 72 1017.4
20260905153014 76 182 2.0 6.0 0.00 0.14 0.14 73 1017.3
20260905152514 76 304 0.0 2.0 0.00 0.14 0.14 76 1017.3
20260905152009 76 200 2.0 3.0 0.00 0.14 0.14 76 1017.2
20260905151504 74 106 1.0 2.0 0.00 0.14 0.14 80 1017.2
20260905150959 74 148 1.0 2.0 0.00 0.14 0.14 81 1017.2
20260905150454 74 158 2.0 2.0 0.00 0.14 0.14 81 1017.1
20260905145951 74 109 0.0 2.0 0.00 0.14 0.14 83 1017.1
20260905145445 73 218 1.0 1.0 0.00 0.14 0.14 84 1017.0
20260905144944 74 27 0.0 1.0 0.00 0.14 0.14 83 1017.0
20260905144440 74 280 1.0 1.0 0.00 0.14 0.14 83 1017.1
20260905143939 73 249 0.0 2.0 0.00 0.14 0.14 85 1017.0
20260905143432 72 301 0.0 1.0 0.00 0.14 0.14 86 1016.9
20260905142933 71 186 2.0 5.0 0.00 0.14 0.14 88 1016.7
20260905142432 71 345 0.0 1.0 0.00 0.14 0.14 91 1016.6
20260905141928 71 317 0.0 2.0 0.00 0.14 0.14 93 1016.5
20260905141422 70 259 0.0 0.0 0.00 0.14 0.14 94 1016.7
20260905140919 70 58 0.0 1.0 0.00 0.14 0.14 95 1016.7
20260905140414 70 259 0.0 0.0 0.00 0.14 0.14 96 1016.5
20260905135912 70 262 0.0 1.0 0.00 0.14 0.14 96 1016.6
20260905135408 69 188 1.0 1.0 0.00 0.14 0.14 97 1016.7
20260905134903 69 290 0.0 0.0 0.00 0.14 0.14 97 1016.6
20260905134402 69 246 0.0 0.0 0.00 0.14 0.14 97 1016.9
20260905133856 69 262 0.0 0.0 0.00 0.14 0.14 98 1016.5
20260905133352 69 166 0.0 1.0 0.00 0.14 0.14 98 1016.9
20260905132850 69 245 0.0 0.0 0.00 0.14 0.14 98 1017.0
20260905132341 69 241 0.0 0.0 0.00 0.14 0.14 98 1016.7
20260905131840 69 254 0.0 0.0 0.00 0.14 0.14 98 1017.0
20260905131336 69 265 0.0 1.0 0.00 0.14 0.14 98 1016.9
20260905130832 69 254 0.0 1.0 0.00 0.14 0.14 98 1016.9
20260905130330 69 270 0.0 0.0 0.00 0.14 0.14 98 1017.1
20260905125826 69 296 0.0 0.0 0.00 0.14 0.14 98 1016.7
20260905125320 68 269 0.0 0.0 0.00 0.14 0.14 98 1016.9
20260905124816 68 265 0.0 0.0 0.00 0.14 0.14 98 1016.9
20260905124312 68 259 0.0 0.0 0.00 0.14 0.14 98 1017.1
20260905123807 68 265 0.0 0.0 0.00 0.14 0.14 97 1017.0
20260905123304 68 304 0.0 0.0 0.00 0.14 0.14 97 1016.6
20260905122804 68 113 1.0 2.0 0.00 0.14 0.14 97 1016.7
20260905122306 68 289 0.0 0.0 0.00 0.14 0.14 97 1016.9
20260905121759 68 260 0.0 0.0 0.05 0.14 0.14 97 1017.0
20260905121255 68 249 0.0 0.0 0.05 0.14 0.14 97 1016.5
20260905120754 68 269 0.0 0.0 0.00 0.13 0.13 97 1016.6
20260905120254 68 253 0.0 0.0 0.00 0.13 0.13 97 1016.6
20260905115748 67 243 0.0 0.0 0.07 0.13 0.13 96 1016.7
20260905115243 67 234 0.0 0.0 0.19 0.13 0.13 96 1016.7
20260905114742 68 216 0.0 0.0 0.35 0.12 0.12 95 1016.9
20260905114241 68 232 0.0 0.0 0.19 0.09 0.09 95 1016.9
20260905113740 68 239 0.0 0.0 0.07 0.06 0.06 94 1016.7
20260905113236 68 239 0.0 0.0 0.19 0.06 0.06 94 1016.9
20260905112731 68 241 0.0 2.0 0.12 0.05 0.05 93 1016.4
20260905112226 68 184 2.0 3.0 0.05 0.03 0.03 91 1016.5
20260905111721 69 103 0.0 1.0 0.17 0.03 0.03 90 1016.5
20260905111215 70 234 0.0 2.0 0.05 0.01 0.01 88 1016.6
20260905110714 70 228 0.0 0.0 0.00 0.00 0.00 87 1016.5
20260905110209 70 176 1.0 2.0 0.00 0.00 0.00 86 1016.4
20260905105705 70 196 0.0 1.0 0.00 0.00 0.00 85 1016.4
20260905105203 70 119 1.0 2.0 0.00 0.00 0.00 85 1016.3
20260905104658 70 101 2.0 5.0 0.00 0.00 0.00 85 1016.3
20260905104154 70 252 1.0 1.0 0.00 0.00 0.00 85 1016.2
20260905103649 70 269 0.0 2.0 0.00 0.00 0.00 85 1016.2
20260905103145 70 326 0.0 1.0 0.00 0.00 0.00 86 1016.3
20260905102641 71 269 0.0 0.0 0.00 0.00 0.00 86 1016.5
20260905102137 70 225 1.0 2.0 0.00 0.00 0.00 86 1016.2
20260905101635 70 222 0.0 1.0 0.00 0.00 0.00 87 1016.1
20260905101134 70 301 0.0 1.0 0.00 0.00 0.00 88 1016.1
20260905100630 70 212 0.0 2.0 0.00 0.00 0.00 88 1016.2
20260905100125 70 277 1.0 1.0 0.00 0.00 0.00 88 1016.3
20260905095619 70 249 0.0 1.0 0.00 0.00 0.00 89 1016.2
20260905095114 70 225 0.0 0.0 0.00 0.00 0.00 90 1016.3
20260905094610 70 245 0.0 1.0 0.00 0.00 0.00 91 1016.2
20260905094108 70 239 0.0 1.0 0.00 0.00 0.00 93 1016.3
20260905093603 70 316 0.0 0.0 0.00 0.00 0.00 93 1016.3
20260905093100 70 245 0.0 0.0 0.00 0.00 0.00 93 1016.1
20260905092559 70 242 0.0 0.0 0.00 0.00 0.00 94 1016.2
20260905092055 70 217 0.0 0.0 0.00 0.00 0.00 94 1016.0
20260905091554 70 228 0.0 0.0 0.00 0.00 0.00 94 1015.9
20260905091048 70 239 0.0 0.0 0.00 0.00 0.00 94 1016.2
20260905090543 70 241 0.0 0.0 0.00 0.00 0.00 94 1016.2
20260905090038 70 242 0.0 1.0 0.00 0.00 0.00 93 1016.3
20260905085536 70 249 0.0 1.0 0.00 0.00 0.00 93 1016.2
20260905085032 70 295 0.0 1.0 0.00 0.00 0.00 93 1016.3
20260905084532 70 256 0.0 1.0 0.00 0.00 0.00 93 1016.0
20260905084027 70 232 0.0 2.0 0.00 0.00 0.00 93 1015.6
20260905083522 70 57 0.0 1.0 0.00 0.00 0.00 94 1015.4
20260905083019 70 236 0.0 1.0 0.00 0.00 0.00 94 1015.4
20260905082514 70 232 0.0 1.0 0.00 0.00 0.00 94 1015.4
20260905082009 71 236 0.0 1.0 0.00 0.00 0.00 94 1015.2
20260905081508 71 199 0.0 1.0 0.00 0.00 0.00 94 1015.5
20260905081003 71 242 0.0 0.0 0.00 0.00 0.00 94 1015.4
20260905080458 71 252 0.0 0.0 0.00 0.00 0.00 94 1015.7
20260905075956 71 256 0.0 0.0 0.00 0.00 0.00 94 1015.7
20260905075451 71 249 0.0 0.0 0.00 0.00 0.00 94 1015.9
20260905074950 71 14 0.0 0.0 0.00 0.00 0.00 94 1015.7
20260905074446 71 301 0.0 1.0 0.00 0.00 0.00 94 1015.8
20260905073942 71 238 0.0 0.0 0.00 0.00 0.00 94 1015.7
20260905073436 71 241 0.0 0.0 0.00 0.00 0.00 94 1015.9
20260905072932 71 241 0.0 0.0 0.00 0.00 0.00 94 1016.0
20260905072427 71 239 0.0 0.0 0.00 0.00 0.00 94 1015.9
20260905071923 71 235 0.0 0.0 0.00 0.00 0.00 93 1015.9
20260905071420 71 242 0.0 0.0 0.00 0.00 0.00 93 1015.7
20260905070918 72 242 0.0 0.0 0.00 0.00 0.00 93 1015.7
20260905070415 72 327 0.0 0.0 0.00 0.00 0.00 93 1015.6
20260905065915 72 312 0.0 0.0 0.00 0.00 0.00 93 1015.8
20260905065413 72 225 1.0 1.0 0.00 0.00 0.00 93 1015.7
20260905064908 71 198 0.0 0.0 0.00 0.00 0.00 93 1015.5
20260905064403 71 178 1.0 3.0 0.00 0.00 0.00 93 1015.5
20260905063903 72 193 3.0 3.0 0.00 0.00 0.00 93 1015.4
20260905063358 72 236 0.0 1.0 0.00 0.00 0.00 94 1015.5
20260905062854 72 225 0.0 1.0 0.00 0.00 0.00 94 1015.7
20260905062353 72 160 1.0 2.0 0.00 0.00 0.00 94 1015.5
20260905061848 72 249 0.0 1.0 0.00 0.00 0.00 94 1015.5
20260905061343 72 217 2.0 3.0 0.00 0.00 0.00 94 1015.4
20260905060837 72 176 1.0 2.0 0.00 0.00 0.00 94 1015.6
20260905060335 72 188 1.0 3.0 0.00 0.00 0.00 94 1015.4
20260905055833 72 87 1.0 3.0 0.00 0.00 0.00 94 1015.4
20260905055328 72 235 0.0 1.0 0.00 0.00 0.00 94 1015.6
20260905054828 72 322 0.0 0.0 0.00 0.00 0.00 94 1015.9
20260905054325 72 281 0.0 0.0 0.00 0.00 0.00 94 1016.1
20260905053824 72 242 0.0 1.0 0.00 0.00 0.00 94 1016.1
20260905053319 72 249 0.0 0.0 0.00 0.00 0.00 94 1016.2
20260905052814 72 242 0.0 0.0 0.00 0.00 0.00 94 1016.0
20260905052313 72 249 0.0 0.0 0.00 0.00 0.00 94 1015.9
20260905051813 72 242 0.0 0.0 0.00 0.00 0.00 94 1015.9
20260905051309 72 239 0.0 1.0 0.00 0.00 0.00 94 1016.0
20260905050806 72 221 1.0 1.0 0.00 0.00 0.00 94 1015.9
20260905050302 72 322 0.0 1.0 0.00 0.00 0.00 94 1015.8
20260905045757 72 232 0.0 0.0 0.00 0.00 0.00 93 1015.9
20260905045252 72 240 0.0 0.0 0.00 0.00 0.00 93 1016.2
20260905044747 73 256 0.0 0.0 0.00 0.00 0.00 93 1016.1
20260905044242 73 229 0.0 1.0 0.00 0.00 0.00 93 1016.3
20260905043741 73 225 0.0 0.0 0.00 0.00 0.00 93 1016.2
20260905043236 73 336 0.0 1.0 0.00 0.00 0.00 93 1016.4
20260905042731 73 287 0.0 0.0 0.00 0.00 0.00 93 1016.4
20260905042230 73 242 0.0 1.0 0.00 0.00 0.00 93 1016.3
20260905041726 74 284 0.0 0.0 0.00 0.00 0.00 93 1016.4
20260905041221 74 197 0.0 1.0 0.00 0.00 0.00 93 1016.3
20260905040716 74 231 0.0 2.0 0.00 0.00 0.00 93 1016.3
20260905040215 74 225 0.0 0.0 0.00 0.00 0.00 93 1016.2
20260905035715 74 237 0.0 0.0 0.00 0.81 0.81 92 1016.3
20260905035211 74 249 0.0 0.0 0.00 0.81 0.81 92 1016.4
20260905034707 74 249 0.0 1.0 0.00 0.81 0.81 92 1016.4
20260905034207 74 266 0.0 0.0 0.00 0.81 0.81 92 1016.5
20260905033705 74 248 0.0 0.0 0.00 0.81 0.81 93 1016.3
20260905033201 74 245 0.0 0.0 0.00 0.81 0.81 93 1016.5
20260905032701 74 239 0.0 0.0 0.00 0.81 0.81 93 1016.7
20260905032155 74 268 0.0 1.0 0.00 0.81 0.81 93 1016.9
20260905031651 74 272 0.0 0.0 0.00 0.81 0.81 94 1016.9
20260905031146 74 279 0.0 0.0 0.00 0.81 0.81 94 1016.9
20260905030641 73 248 0.0 0.0 0.00 0.81 0.81 94 1016.7
20260905030137 73 248 0.0 0.0 0.00 0.81 0.81 95 1016.9
20260905025632 73 248 0.0 0.0 0.00 0.81 0.81 95 1016.7
20260905025128 73 255 0.0 0.0 0.00 0.81 0.81 95 1016.9
20260905024624 73 249 0.0 0.0 0.00 0.81 0.81 95 1016.9
20260905024118 73 249 0.0 0.0 0.00 0.81 0.81 95 1016.9
20260905023614 73 241 0.0 0.0 0.00 0.81 0.81 95 1016.6
20260905023108 73 241 0.0 0.0 0.00 0.81 0.81 95 1016.5
20260905022607 73 239 0.0 0.0 0.00 0.81 0.81 95 1016.4
20260905022103 73 237 0.0 0.0 0.00 0.81 0.81 95 1016.5
20260905021602 73 239 0.0 0.0 0.00 0.81 0.81 95 1016.9
20260905021058 73 241 0.0 0.0 0.00 0.81 0.81 95 1016.7
20260905020557 72 245 0.0 0.0 0.00 0.81 0.81 95 1016.9
20260905020053 72 242 0.0 0.0 0.00 0.81 0.81 95 1016.6
20260905015551 72 242 0.0 0.0 0.00 0.81 0.81 94 1016.6
20260905015046 73 242 0.0 0.0 0.00 0.81 0.81 94 1016.5
20260905014540 73 241 0.0 0.0 0.00 0.81 0.81 94 1016.5
20260905014036 73 241 0.0 0.0 0.00 0.81 0.81 94 1016.9
20260905013531 73 233 0.0 0.0 0.00 0.81 0.81 94 1016.9
20260905013027 73 242 0.0 0.0 0.00 0.81 0.81 93 1016.9
20260905012521 73 242 0.0 0.0 0.00 0.81 0.81 93 1016.9
20260905012019 73 242 0.0 0.0 0.00 0.81 0.81 92 1016.6
20260905011515 73 242 0.0 0.0 0.00 0.81 0.81 92 1016.6
20260905011010 74 242 0.0 0.0 0.00 0.81 0.81 91 1016.7
20260905010509 74 242 0.0 0.0 0.00 0.81 0.81 90 1016.7
20260905010006 74 242 0.0 0.0 0.00 0.81 0.81 90 1016.5
20260905005501 75 240 0.0 0.0 0.00 0.81 0.81 89 1016.6
20260905004956 75 246 0.0 0.0 0.00 0.81 0.81 89 1016.4
20260905004451 75 246 0.0 0.0 0.00 0.81 0.81 89 1016.5
20260905003946 75 240 0.0 0.0 0.00 0.81 0.81 88 1016.5
20260905003442 75 245 0.0 0.0 0.00 0.81 0.81 89 1016.6
20260905002938 75 247 0.0 0.0 0.00 0.81 0.81 89 1016.5
20260905002437 75 248 0.0 0.0 0.00 0.81 0.81 89 1016.6
20260905001931 75 252 0.0 0.0 0.00 0.81 0.81 88 1016.5
20260905001427 75 252 0.0 1.0 0.00 0.81 0.81 88 1016.5
20260905000921 76 247 0.0 0.0 0.00 0.81 0.81 87 1016.5
20260905000417 76 246 0.0 0.0 0.00 0.81 0.81 87 1016.4
20260904235912 76 249 0.0 0.0 0.00 0.81 0.81 86 1016.4
20260904235408 76 247 0.0 0.0 0.00 0.81 0.81 86 1016.2
20260904234907 77 250 0.0 0.0 0.00 0.81 0.81 85 1016.3
20260904234402 77 256 0.0 0.0 0.00 0.81 0.81 84 1016.4
20260904233858 77 256 0.0 0.0 0.00 0.81 0.81 84 1016.2
20260904233353 77 256 0.0 0.0 0.00 0.81 0.81 84 1016.2
20260904232850 77 252 0.0 0.0 0.00 0.81 0.81 84 1016.2
20260904232346 77 218 0.0 0.0 0.00 0.81 0.81 84 1016.2
20260904231842 77 256 0.0 0.0 0.00 0.81 0.81 84 1016.2
20260904231342 77 261 0.0 2.0 0.00 0.81 0.81 84 1016.1
20260904230837 78 265 0.0 1.0 0.00 0.81 0.81 83 1016.1
20260904230336 78 255 0.0 2.0 0.00 0.81 0.81 83 1016.1
20260904225832 78 259 0.0 1.0 0.00 0.81 0.81 83 1016.0
20260904225330 78 263 0.0 1.0 0.00 0.81 0.81 83 1016.2
20260904224829 78 256 0.0 0.0 0.00 0.81 0.81 83 1015.8
20260904224325 78 252 0.0 0.0 0.00 0.81 0.81 83 1016.0
20260904223824 77 289 0.0 0.0 0.00 0.81 0.81 83 1015.5
20260904223318 77 254 0.0 0.0 0.00 0.81 0.81 84 1015.6
20260904222815 77 267 0.0 1.0 0.00 0.81 0.81 84 1015.8
20260904222310 77 262 0.0 1.0 0.00 0.81 0.81 84 1015.8
20260904221805 77 256 0.0 0.0 0.00 0.81 0.81 84 1015.8
20260904221305 77 266 0.0 1.0 0.00 0.81 0.81 83 1015.6
20260904220801 77 254 1.0 2.0 0.00 0.81 0.81 83 1015.7
20260904220259 78 261 0.0 0.0 0.00 0.81 0.81 84 1015.7
20260904215755 77 280 2.0 2.0 0.00 0.81 0.81 83 1015.5
20260904215250 77 277 1.0 2.0 0.00 0.81 0.81 84 1015.6
20260904214746 77 249 1.0 2.0 0.00 0.81 0.81 84 1015.7